KD8DWO Weather Reports


Display with metric or nautical units.
time (UTC)temp
F
wind
direction
speed
MPH
gust
MPH
rain 1hr
in
rain 24hr
in
rain mn
in
humidity
%
barometer
mb
20260502231006 48 244 0.0 3.0 0.00 0.00 0.00 41 1016.7
20260502230008 49 254 1.0 10.0 0.00 0.00 0.00 39 1016.8
20260502225005 49 258 2.0 7.0 0.00 0.00 0.00 40 1017.0
20260502224011 49 227 3.0 7.0 0.00 0.00 0.00 40 1016.9
20260502222006 49 224 6.0 7.0 0.00 0.00 0.00 40 1017.0
20260502221007 48 25 0.0 5.0 0.00 0.00 0.00 42 1017.2
20260502220010 48 246 2.0 6.0 0.00 0.00 0.00 42 1017.0
20260502215007 49 282 3.0 7.0 0.00 0.00 0.00 39 1017.1
20260502213031 49 307 3.0 6.0 0.00 0.00 0.00 40 1017.0
20260502212005 49 308 2.0 7.0 0.00 0.00 0.00 42 1017.1
20260502211006 49 11 2.0 9.0 0.00 0.02 0.00 40 1016.9
20260502205005 49 30 3.0 7.0 0.00 0.05 0.00 40 1017.0
20260502204007 49 36 1.0 10.0 0.00 0.05 0.00 42 1017.1
20260502203006 49 9 2.0 7.0 0.00 0.05 0.00 42 1017.0
20260502202005 49 313 0.0 7.0 0.00 0.05 0.00 40 1017.2
20260502201006 48 351 0.0 5.0 0.00 0.05 0.00 42 1017.4
20260502200006 48 303 2.0 6.0 0.00 0.05 0.00 43 1017.5
20260502195006 48 269 0.0 0.0 0.00 0.05 0.00 42 1017.5
20260502194005 48 269 0.0 0.0 0.00 0.05 0.00 43 1017.6
20260502193005 48 269 0.0 0.0 0.00 0.05 0.00 43 1017.6
20260502192006 48 271 0.0 0.0 0.00 0.05 0.00 43 1017.8
20260502191005 48 260 0.0 0.0 0.00 0.05 0.00 44 1017.9
20260502184006 47 240 1.0 7.0 0.00 0.05 0.00 47 1018.0
20260502183005 47 280 1.0 7.0 0.00 0.05 0.00 47 1018.2
20260502182005 47 294 3.0 7.0 0.00 0.05 0.00 47 1018.2
20260502181005 47 0 1.0 5.0 0.00 0.05 0.00 47 1018.1
20260502164005 46 326 1.0 5.0 0.00 0.05 0.00 52 1018.7
20260502163005 45 357 1.0 6.0 0.00 0.05 0.00 52 1018.9
20260502161005 45 263 2.0 6.0 0.00 0.05 0.00 52 1018.9
20260502151005 45 5 2.0 7.0 0.00 0.05 0.00 56 1018.5
20260502123004 39 29 0.0 0.0 0.00 0.13 0.00 75 1018.3
20260502121005 38 329 0.0 0.0 0.00 0.13 0.00 78 1018.1
20260502115004 36 355 0.0 0.0 0.00 0.13 0.00 80 1018.0
20260502114004 36 0 0.0 0.0 0.00 0.13 0.00 81 1018.0
20260502112004 35 325 0.0 0.0 0.00 0.13 0.00 81 1017.8
20260502111004 35 325 0.0 0.0 0.00 0.13 0.00 81 1017.7
20260502110005 35 325 0.0 0.0 0.00 0.13 0.00 81 1017.7
20260502105005 35 325 0.0 0.0 0.00 0.14 0.00 80 1017.5
20260502104004 36 325 0.0 0.0 0.00 0.14 0.00 80 1017.5
20260502103004 36 325 0.0 0.0 0.00 0.14 0.00 79 1017.4
20260502102004 36 325 0.0 0.0 0.00 0.15 0.00 80 1017.2
20260502101004 37 325 0.0 0.0 0.00 0.18 0.00 78 1017.5
20260502091004 37 322 0.0 0.0 0.00 0.23 0.00 78 1017.0
20260502071005 38 282 0.0 0.0 0.00 0.31 0.00 75 1016.7
20260502070004 38 282 0.0 0.0 0.00 0.31 0.00 75 1016.6
20260502065004 38 282 0.0 0.0 0.00 0.31 0.00 75 1016.8
20260502064004 38 282 0.0 0.0 0.00 0.31 0.00 75 1017.0
20260502062004 39 282 0.0 0.0 0.00 0.33 0.00 74 1016.8
20260502061006 39 283 0.0 0.0 0.00 0.34 0.00 76 1016.9
20260502060006 39 263 0.0 0.0 0.00 0.34 0.00 76 1017.0
20260502055007 39 263 0.0 0.0 0.00 0.34 0.00 76 1017.0
20260502054006 40 263 0.0 0.0 0.00 0.34 0.00 76 1017.1
20260502053006 40 263 0.0 0.0 0.00 0.34 0.00 77 1017.1
20260502052007 41 264 0.0 0.0 0.00 0.34 0.00 78 1017.2
20260502051007 41 287 0.0 0.0 0.00 0.34 0.00 79 1017.2
20260502045006 41 317 0.0 0.0 0.00 0.34 0.00 79 1017.1
20260502043010 41 317 0.0 0.0 0.00 0.34 0.00 80 1017.3
20260502042006 41 317 0.0 0.0 0.00 0.34 0.00 80 1017.3
20260502041006 41 12 0.0 0.0 0.00 0.34 0.00 81 1017.3
20260502040006 41 12 0.0 0.0 0.00 0.34 0.00 81 1017.3
20260502035006 41 12 0.0 0.0 0.00 0.34 0.34 81 1016.9
20260502034007 42 12 0.0 0.0 0.00 0.34 0.34 79 1016.8
20260502033006 42 12 0.0 0.0 0.00 0.34 0.34 78 1016.8